GW6664 Weather Reports


time (UTC)temp
C
wind
direction
speed
KPH
gust
KPH
rain 1hr
cm
rain 24hr
cm
rain mn
cm
humidity
%
barometer
mb
20260502211538 36 127 3.2 9.7 0.00 0.00 0.00 9 1009.9
20260502210039 36 52 3.2 9.7 0.00 0.00 0.00 9 1010.1
20260502204539 36 86 1.6 8.0 0.00 0.00 0.00 9 1010.4
20260502203034 35 63 3.2 14.5 0.00 0.00 0.00 9 1010.4
20260502201545 36 347 0.0 11.3 0.00 0.00 0.00 8 1010.7
20260502200036 35 111 0.0 9.7 0.00 0.00 0.00 8 1010.9
20260502194534 35 104 1.6 9.7 0.00 0.00 0.00 8 1011.1
20260502193035 36 82 1.6 6.4 0.00 0.00 0.00 8 1011.4
20260502191544 35 0 1.6 8.0 0.00 0.00 0.00 8 1011.4
20260502190037 35 8 1.6 9.7 0.00 0.00 0.00 8 1011.4
20260502184545 35 6 3.2 8.0 0.00 0.00 0.00 8 1011.6
20260502183037 34 57 1.6 8.0 0.00 0.00 0.00 9 1011.8
20260502181540 35 138 1.6 11.3 0.00 0.00 0.00 9 1012.0
20260502163037 31 77 0.0 3.2 0.00 0.00 0.00 16 1012.3
20260502161535 31 0 0.0 3.2 0.00 0.00 0.00 17 1012.3
20260502151535 29 0 0.0 1.6 0.00 0.00 0.00 20 1012.1
20260502123043 23 0 0.0 4.8 0.00 0.00 0.00 26 1010.8
20260502121540 23 206 0.0 4.8 0.00 0.00 0.00 26 1010.8
20260502114537 25 216 11.3 16.1 0.00 0.00 0.00 22 1010.4
20260502113038 25 216 6.4 12.9 0.00 0.00 0.00 22 1010.6
20260502111538 25 253 8.0 17.7 0.00 0.00 0.00 22 1010.5
20260502110036 25 231 9.7 16.1 0.00 0.00 0.00 22 1010.5
20260502104540 25 215 6.4 11.3 0.00 0.00 0.00 22 1010.4
20260502103038 25 206 8.0 12.9 0.00 0.00 0.00 22 1010.3
20260502101537 25 214 9.7 14.5 0.00 0.00 0.00 23 1010.3
20260502071536 27 207 6.4 17.7 0.00 0.00 0.00 22 1010.6
20260502070035 26 205 8.0 17.7 0.00 0.00 0.00 23 1010.5
20260502064534 26 250 11.3 19.3 0.00 0.00 0.00 24 1010.7
20260502063035 26 233 9.7 17.7 0.00 0.00 0.00 25 1010.7
20260502061538 26 243 9.7 19.3 0.00 0.00 0.00 25 1010.7
20260502060035 26 238 11.3 20.9 0.00 0.00 0.00 26 1010.5
20260502054538 27 243 11.3 25.7 0.00 0.00 0.00 26 1010.4
20260502053036 27 250 8.0 20.9 0.00 0.00 0.00 26 1010.3
20260502051539 27 217 12.9 22.5 0.00 0.00 0.00 26 1010.4
20260502050039 27 224 14.5 25.7 0.00 0.00 0.00 26 1010.3
20260502044535 27 236 8.0 20.9 0.00 0.00 0.00 27 1010.1
20260502043037 27 216 12.9 27.4 0.00 0.00 0.00 27 1010.0
20260502041532 27 237 14.5 33.8 0.00 0.00 0.00 29 1009.7
20260502040035 27 225 20.9 32.2 0.00 0.00 0.00 30 1009.5
20260502034536 27 213 19.3 33.8 0.00 0.00 0.00 31 1009.3
20260502033044 28 223 17.7 30.6 0.00 0.00 0.00 29 1009.2
20260502031535 28 195 19.3 32.2 0.00 0.00 0.00 28 1008.9
20260502030039 28 238 14.5 32.2 0.00 0.00 0.00 29 1008.7
20260502024533 28 243 16.1 30.6 0.00 0.00 0.00 27 1008.5
20260502023032 29 213 17.7 30.6 0.00 0.00 0.00 26 1008.5
20260502021535 29 236 14.5 25.7 0.00 0.00 0.00 26 1008.2
20260502020035 30 240 14.5 24.1 0.00 0.00 0.00 27 1008.1
20260502014534 30 241 16.1 29.0 0.00 0.00 0.00 24 1007.9
20260502013037 31 250 14.5 27.4 0.00 0.00 0.00 22 1008.0
20260502011534 31 266 16.1 25.7 0.00 0.00 0.00 21 1008.0
20260502010040 32 278 14.5 25.7 0.00 0.00 0.00 21 1008.0
20260502004550 32 275 17.7 27.4 0.00 0.00 0.00 20 1007.8
20260502003034 33 281 12.9 22.5 0.00 0.00 0.00 20 1007.8
20260502001532 33 26 6.4 22.5 0.00 0.00 0.00 16 1007.9
20260502000050 35 248 6.4 12.9 0.00 0.00 0.00 16 1007.7
20260501234537 35 101 0.0 8.0 0.00 0.00 0.00 15 1008.1
20260501233040 34 89 0.0 6.4 0.00 0.00 0.00 12 1008.0
20260501231540 33 104 0.0 3.2 0.00 0.00 0.00 13 1008.2
20260501230034 33 95 1.6 6.4 0.00 0.00 0.00 13 1008.3
20260501224534 33 96 0.0 4.8 0.00 0.00 0.00 13 1008.4
20260501223038 34 89 1.6 8.0 0.00 0.00 0.00 12 1008.7
20260501221536 33 0 1.6 8.0 0.00 0.00 0.00 13 1008.9
20260501220049 33 0 1.6 9.7 0.00 0.00 0.00 13 1009.0
20260501214534 36 0 1.6 6.4 0.00 0.00 0.00 11 1009.4
20260501213051 35 42 1.6 4.8 0.00 0.00 0.00 12 1009.5